sat.trackr.live / text

‹ back to catalog

STARLINK-32652

NORAD 62234 · 2024-231S

PAYLOAD ACTIVE UNKNOWN

§ Identity

Operator
Country
US
Launch date
2024-12-05
Launch site
AFWTR
Launch vehicle
Mass (kg)
RCS (m²)

Purposes: comms

External: N2YO · Heavens-Above · Gunter

§ Orbital elements

Epoch: 2026-05-25T04:58:44.378112Z

Period
94.10 min
Inclination
53.1586°
Eccentricity
0.0001121
Mean motion
15.30207012 rev/d
Perigee alt
474.4 km
Apogee alt
476.0 km
Semi-major
6,853.3 km
B*
4.6363e-4
RAAN
224.2039°
Arg perigee
100.3332°
Mean anomaly
259.7795°
Rev number
8,347

§ Raw data

STARLINK-326521 62234U 24231S   26145.20745808  .00013400  00000+0  46363-3 0  99932 62234  53.1586 224.2039 0001121 100.3332 259.7795 15.30207012 83473

JSON: /api/v1/satellites/62234 · /tle

For live sub-satellite position, see the globe view (requires WebGL).

§ Visibility from observer

Set your observer location to see the next 7 days of passes ≥ 10°. The values pass through the URL so the page stays shareable.

No JS? Fill the form by hand. The geolocation button needs JavaScript.